Home > Weather > 's-Hertogenbosch > Past weeks

Flag for Netherlands Past Weather in 's-Hertogenbosch, Netherlands — Yesterday and Last 2 Weeks

Now
55 °F

Cool.


Feels Like: 55 °F
Forecast: 51 / 73 °F
Wind: 2 mph from North

Location: Volkel

Current Time: Aug 29, 2016 at 11:50:39 PM

Latest Report: Aug 29, 2016 at 11:25 PM


Visibility: N/A

Pressure: 30.24 "Hg

Humidity: 88%

Dew Point: 52 °F

Location of 's-HertogenboschLocation

Past Weather in 's-Hertogenbosch — Graph

°F

's-Hertogenbosch Temperature Yesterday

Maximum temperature yesterday: 81 °F (at 10:55 AM)
Minimum temperature yesterday: 61 °F (at 11:55 PM)
Average temperature yesterday: 72 °F

High & Low Weather Summary for the Past Weeks

 TemperatureHumidityPressure
High91 °F (Aug 25, 4:25 PM)100% (Aug 19, 2:25 AM)30.33 "Hg (Aug 19, 2:25 AM)
Low50 °F (Aug 18, 5:55 AM)34% (Aug 17, 3:55 PM)29.77 "Hg (Aug 19, 1:55 PM)
Average67 °F73%30.02 "Hg
* Reported Aug 14 10:25 PM — Aug 29 10:55 PM, 's-Hertogenbosch, Weather by CustomWeather, © 2016

Note: Actual official high and low records may vary slightly from our data, if they occured in-between our weather recording intervals... More about our weather records

Advertising

's-Hertogenbosch Weather History for the Previous 24 Hours

Scroll right to see more
 ConditionsComfort  
Time TempWeatherWind HumidityBarometerVisibility
10:55 PM
Mon, Aug 29
57 °FCool.2 mph82%30.24 "HgN/A
10:25 PM59 °FCool.3 mph77%30.24 "HgN/A
9:55 PM61 °FCool.2 mph77%30.21 "HgN/A
9:25 PM61 °FCool.5 mph77%30.21 "HgN/A
8:55 PM63 °FMild.5 mph73%30.18 "HgN/A
8:25 PM64 °FMild.3 mph73%30.18 "HgN/A
7:55 PM66 °FMild.6 mph68%30.18 "HgN/A
7:25 PM68 °FMild.6 mph64%30.15 "HgN/A
6:55 PM68 °FPassing clouds.5 mph64%30.15 "HgN/A
6:25 PM70 °FScattered clouds.6 mph64%30.15 "HgN/A
5:55 PM70 °FPassing clouds.7 mph64%30.15 "HgN/A
5:25 PM70 °FPartly sunny.7 mph60%30.15 "HgN/A
4:55 PM70 °FPartly sunny.5 mph69%30.12 "HgN/A
4:25 PM70 °FBroken clouds.7 mph64%30.12 "HgN/A
3:55 PM72 °FPassing clouds.6 mph57%30.12 "HgN/A
3:25 PM72 °FPassing clouds.6 mph57%30.12 "HgN/A
2:55 PM70 °FPassing clouds.8 mph60%30.12 "HgN/A
2:25 PM66 °FBroken clouds.7 mph73%30.12 "HgN/A
1:55 PM68 °FBroken clouds.9 mph69%30.12 "HgN/A
1:25 PM70 °FPartly sunny.7 mph60%30.09 "HgN/A
12:55 PM70 °FBroken clouds.7 mph69%30.09 "HgN/A
12:25 PM70 °FOvercast.6 mph60%30.09 "HgN/A
11:55 AM70 °FPartly sunny.5 mph64%30.09 "HgN/A
11:25 AM68 °FBroken clouds.6 mph69%30.09 "HgN/A
10:55 AM66 °FScattered clouds.5 mph78%30.07 "HgN/A
10:25 AM66 °FBroken clouds.7 mph78%30.07 "HgN/A
10:04 AM66 °FScattered clouds.6 mph83%30.07 "HgN/A
9:25 AM64 °FMostly cloudy.5 mph88%30.07 "HgN/A
8:55 AM63 °FMostly cloudy.6 mph94%30.04 "HgN/A
8:25 AM61 °FBroken clouds.6 mph100%30.04 "HgN/A
8:03 AM61 °FFog.7 mph100%30.04 "Hg6 mi
7:55 AM61 °FFog.7 mph100%30.04 "Hg5 mi
7:25 AM61 °FOvercast.8 mph94%30.01 "HgN/A
7:04 AM61 °FPartly cloudy.5 mph94%30.01 "HgN/A
6:25 AM61 °FDrizzle. Mostly cloudy.5 mph94%30.01 "Hg4 mi
5:59 AM61 °FMostly cloudy.5 mph88%30.01 "HgN/A
5:25 AM59 °FOvercast.7 mph94%30.01 "HgN/A
4:59 AM61 °FMostly cloudy.7 mph88%30.01 "HgN/A
4:55 AM61 °FOvercast.8 mph88%30.01 "HgN/A
4:25 AM61 °FOvercast.8 mph88%29.98 "HgN/A
3:55 AM59 °FPassing clouds.8 mph88%29.98 "HgN/A
3:25 AM59 °FCool.9 mph88%29.98 "HgN/A
2:55 AM59 °FCool.9 mph88%29.98 "HgN/A
2:25 AM59 °FCool.9 mph88%29.98 "HgN/A
1:55 AM59 °FCool.8 mph88%29.98 "HgN/A
1:25 AM57 °FCool.7 mph88%29.98 "HgN/A
12:55 AM59 °FCool.6 mph82%29.98 "HgN/A
12:25 AM61 °FCool.6 mph83%29.98 "HgN/A
11:55 PM
Sun, Aug 28
61 °FCool.8 mph83%29.98 "HgN/A
11:25 PM63 °FMild.7 mph77%29.98 "HgN/A
Weather by CustomWeather, © 2016

See weather overviewHow to use our weather pages